owner,sensor,date,latitude,longitude,sea_surface_height_above_sea_level,qcFlag 
COMPS,ioos:station:USF.COMPS:ANC:1,2008-09-01T00:00:00Z,28.1930,-82.7890,0.292,1111122 
COMPS,ioos:station:USF.COMPS:ANC:1,2008-09-01T00:06:00Z,28.1930,-82.7890,0.285,1111122 
COMPS,ioos:station:USF.COMPS:ANC:1,2008-09-01T00:12:00Z,28.1930,-82.7890,0.278,1111122 
COMPS,ioos:station:USF.COMPS:ANC:1,2008-09-01T00:18:00Z,28.1930,-82.7890,0.28,1111122 
COMPS,ioos:station:USF.COMPS:ANC:1,2008-09-01T00:24:00Z,28.1930,-82.7890,0.28,1111122 
COMPS,ioos:station:USF.COMPS:ANC:1,2008-09-01T00:30:00Z,28.1930,-82.7890,0.296,1111122 
COMPS,ioos:station:USF.COMPS:ANC:1,2008-09-01T00:36:00Z,28.1930,-82.7890,0.301,1111122 
COMPS,ioos:station:USF.COMPS:ANC:1,2008-09-01T00:42:00Z,28.1930,-82.7890,0.312,1111122 
COMPS,ioos:station:USF.COMPS:ANC:1,2008-09-01T00:48:00Z,28.1930,-82.7890,0.33,1111122 
COMPS,ioos:station:USF.COMPS:ANC:1,2008-09-01T00:54:00Z,28.1930,-82.7890,0.351,1111122 
COMPS,ioos:station:USF.COMPS:ANC:1,2008-09-01T01:00:00Z,28.1930,-82.7890,0.372,1111122 
COMPS,ioos:station:USF.COMPS:ANC:1,2008-09-01T01:06:00Z,28.1930,-82.7890,0.395,1111122 
COMPS,ioos:station:USF.COMPS:ANC:1,2008-09-01T01:12:00Z,28.1930,-82.7890,0.41,1111122 
COMPS,ioos:station:USF.COMPS:ANC:1,2008-09-01T01:18:00Z,28.1930,-82.7890,0.422,1111122 
COMPS,ioos:station:USF.COMPS:ANC:1,2008-09-01T01:24:00Z,28.1930,-82.7890,0.443,1111122 
COMPS,ioos:station:USF.COMPS:ANC:1,2008-09-01T01:30:00Z,28.1930,-82.7890,0.446,1111122 
COMPS,ioos:station:USF.COMPS:ANC:1,2008-09-01T01:36:00Z,28.1930,-82.7890,0.447,1111122 
COMPS,ioos:station:USF.COMPS:ANC:1,2008-09-01T01:42:00Z,28.1930,-82.7890,0.465,1111122 
COMPS,ioos:station:USF.COMPS:ANC:1,2008-09-01T01:48:00Z,28.1930,-82.7890,0.488,1111122 
COMPS,ioos:station:USF.COMPS:ANC:1,2008-09-01T01:54:00Z,28.1930,-82.7890,0.501,1111122 
COMPS,ioos:station:USF.COMPS:ANC:1,2008-09-01T02:00:00Z,28.1930,-82.7890,0.511,1111122 
COMPS,ioos:station:USF.COMPS:ANC:1,2008-09-01T02:06:00Z,28.1930,-82.7890,0.532,1111122 
COMPS,ioos:station:USF.COMPS:ANC:1,2008-09-01T02:12:00Z,28.1930,-82.7890,0.555,1111122 
COMPS,ioos:station:USF.COMPS:ANC:1,2008-09-01T02:18:00Z,28.1930,-82.7890,0.578,1111122 
COMPS,ioos:station:USF.COMPS:ANC:1,2008-09-01T02:24:00Z,28.1930,-82.7890,0.604,1111122 
COMPS,ioos:station:USF.COMPS:ANC:1,2008-09-01T02:30:00Z,28.1930,-82.7890,0.623,1111122 
COMPS,ioos:station:USF.COMPS:ANC:1,2008-09-01T02:36:00Z,28.1930,-82.7890,0.642,1111122 
COMPS,ioos:station:USF.COMPS:ANC:1,2008-09-01T02:42:00Z,28.1930,-82.7890,0.673,1111122 
COMPS,ioos:station:USF.COMPS:ANC:1,2008-09-01T02:48:00Z,28.1930,-82.7890,0.698,1111122 
COMPS,ioos:station:USF.COMPS:ANC:1,2008-09-01T02:54:00Z,28.1930,-82.7890,0.723,1111122 
COMPS,ioos:station:USF.COMPS:ANC:1,2008-09-01T03:00:00Z,28.1930,-82.7890,0.744,1111122 
COMPS,ioos:station:USF.COMPS:ANC:1,2008-09-01T03:06:00Z,28.1930,-82.7890,0.763,1111122 
COMPS,ioos:station:USF.COMPS:ANC:1,2008-09-01T03:12:00Z,28.1930,-82.7890,0.774,1111122 
COMPS,ioos:station:USF.COMPS:ANC:1,2008-09-01T03:18:00Z,28.1930,-82.7890,0.787,1111122 
COMPS,ioos:station:USF.COMPS:ANC:1,2008-09-01T03:24:00Z,28.1930,-82.7890,0.818,1111122 
COMPS,ioos:station:USF.COMPS:ANC:1,2008-09-01T03:30:00Z,28.1930,-82.7890,0.856,1111122 
COMPS,ioos:station:USF.COMPS:ANC:1,2008-09-01T03:36:00Z,28.1930,-82.7890,0.866,1111122 
COMPS,ioos:station:USF.COMPS:ANC:1,2008-09-01T03:42:00Z,28.1930,-82.7890,0.877,1111122 
COMPS,ioos:station:USF.COMPS:ANC:1,2008-09-01T03:48:00Z,28.1930,-82.7890,0.902,1111122 
COMPS,ioos:station:USF.COMPS:ANC:1,2008-09-01T03:54:00Z,28.1930,-82.7890,0.915,1111122 
COMPS,ioos:station:USF.COMPS:ANC:1,2008-09-01T04:00:00Z,28.1930,-82.7890,0.926,1111122 
COMPS,ioos:station:USF.COMPS:ANC:1,2008-09-01T04:06:00Z,28.1930,-82.7890,0.951,1111122 
COMPS,ioos:station:USF.COMPS:ANC:1,2008-09-01T04:12:00Z,28.1930,-82.7890,0.98,1111122 
COMPS,ioos:station:USF.COMPS:ANC:1,2008-09-01T04:18:00Z,28.1930,-82.7890,0.994,1111122 
COMPS,ioos:station:USF.COMPS:ANC:1,2008-09-01T04:24:00Z,28.1930,-82.7890,1.0,1111122 
COMPS,ioos:station:USF.COMPS:ANC:1,2008-09-01T04:30:00Z,28.1930,-82.7890,1.01,1111122 
COMPS,ioos:station:USF.COMPS:ANC:1,2008-09-01T04:36:00Z,28.1930,-82.7890,1.009,1111122 
COMPS,ioos:station:USF.COMPS:ANC:1,2008-09-01T04:42:00Z,28.1930,-82.7890,1.008,1111122 
COMPS,ioos:station:USF.COMPS:ANC:1,2008-09-01T04:48:00Z,28.1930,-82.7890,1.013,1111122 
COMPS,ioos:station:USF.COMPS:ANC:1,2008-09-01T04:54:00Z,28.1930,-82.7890,1.023,1111122 
COMPS,ioos:station:USF.COMPS:ANC:1,2008-09-01T05:00:00Z,28.1930,-82.7890,1.015,1111122 
COMPS,ioos:station:USF.COMPS:ANC:1,2008-09-01T05:06:00Z,28.1930,-82.7890,1.008,1111122 
COMPS,ioos:station:USF.COMPS:ANC:1,2008-09-01T05:12:00Z,28.1930,-82.7890,1.017,1111122 
COMPS,ioos:station:USF.COMPS:ANC:1,2008-09-01T05:18:00Z,28.1930,-82.7890,1.022,1111122 
COMPS,ioos:station:USF.COMPS:ANC:1,2008-09-01T05:24:00Z,28.1930,-82.7890,1.011,1111122 
COMPS,ioos:station:USF.COMPS:ANC:1,2008-09-01T05:30:00Z,28.1930,-82.7890,1.012,1111122 
COMPS,ioos:station:USF.COMPS:ANC:1,2008-09-01T05:36:00Z,28.1930,-82.7890,1.01,1111122 
COMPS,ioos:station:USF.COMPS:ANC:1,2008-09-01T05:42:00Z,28.1930,-82.7890,1.013,1111122 
COMPS,ioos:station:USF.COMPS:ANC:1,2008-09-01T05:48:00Z,28.1930,-82.7890,1.008,1111122 
COMPS,ioos:station:USF.COMPS:ANC:1,2008-09-01T05:54:00Z,28.1930,-82.7890,0.982,1111122 
COMPS,ioos:station:USF.COMPS:ANC:1,2008-09-01T06:00:00Z,28.1930,-82.7890,0.969,1111122 
COMPS,ioos:station:USF.COMPS:ANC:1,2008-09-01T06:06:00Z,28.1930,-82.7890,0.976,1111122 
COMPS,ioos:station:USF.COMPS:ANC:1,2008-09-01T06:12:00Z,28.1930,-82.7890,0.967,1111122 
COMPS,ioos:station:USF.COMPS:ANC:1,2008-09-01T06:18:00Z,28.1930,-82.7890,0.951,1111122 
COMPS,ioos:station:USF.COMPS:ANC:1,2008-09-01T06:24:00Z,28.1930,-82.7890,0.959,1111122 
COMPS,ioos:station:USF.COMPS:ANC:1,2008-09-01T06:30:00Z,28.1930,-82.7890,0.95,1111122 
COMPS,ioos:station:USF.COMPS:ANC:1,2008-09-01T06:36:00Z,28.1930,-82.7890,0.927,1111122 
COMPS,ioos:station:USF.COMPS:ANC:1,2008-09-01T06:42:00Z,28.1930,-82.7890,0.901,1111122 
COMPS,ioos:station:USF.COMPS:ANC:1,2008-09-01T06:48:00Z,28.1930,-82.7890,0.885,1111122 
COMPS,ioos:station:USF.COMPS:ANC:1,2008-09-01T06:54:00Z,28.1930,-82.7890,0.875,1111122 
COMPS,ioos:station:USF.COMPS:ANC:1,2008-09-01T07:00:00Z,28.1930,-82.7890,0.861,1111122 
COMPS,ioos:station:USF.COMPS:ANC:1,2008-09-01T07:06:00Z,28.1930,-82.7890,0.834,1111122 
COMPS,ioos:station:USF.COMPS:ANC:1,2008-09-01T07:12:00Z,28.1930,-82.7890,0.799,1111122 
COMPS,ioos:station:USF.COMPS:ANC:1,2008-09-01T07:18:00Z,28.1930,-82.7890,0.768,1111122 
COMPS,ioos:station:USF.COMPS:ANC:1,2008-09-01T07:24:00Z,28.1930,-82.7890,0.738,1111122 
COMPS,ioos:station:USF.COMPS:ANC:1,2008-09-01T07:30:00Z,28.1930,-82.7890,0.722,1111122 
COMPS,ioos:station:USF.COMPS:ANC:1,2008-09-01T07:36:00Z,28.1930,-82.7890,0.709,1111122 
COMPS,ioos:station:USF.COMPS:ANC:1,2008-09-01T07:42:00Z,28.1930,-82.7890,0.69,1111122 
COMPS,ioos:station:USF.COMPS:ANC:1,2008-09-01T07:48:00Z,28.1930,-82.7890,0.669,1111122 
COMPS,ioos:station:USF.COMPS:ANC:1,2008-09-01T07:54:00Z,28.1930,-82.7890,0.648,1111122 
COMPS,ioos:station:USF.COMPS:ANC:1,2008-09-01T08:00:00Z,28.1930,-82.7890,0.632,1111122 
COMPS,ioos:station:USF.COMPS:ANC:1,2008-09-01T08:06:00Z,28.1930,-82.7890,0.621,1111122 
COMPS,ioos:station:USF.COMPS:ANC:1,2008-09-01T08:12:00Z,28.1930,-82.7890,0.591,1111122 
COMPS,ioos:station:USF.COMPS:ANC:1,2008-09-01T08:18:00Z,28.1930,-82.7890,0.566,1111122 
COMPS,ioos:station:USF.COMPS:ANC:1,2008-09-01T08:24:00Z,28.1930,-82.7890,0.548,1111122 
COMPS,ioos:station:USF.COMPS:ANC:1,2008-09-01T08:30:00Z,28.1930,-82.7890,0.521,1111122 
COMPS,ioos:station:USF.COMPS:ANC:1,2008-09-01T08:36:00Z,28.1930,-82.7890,0.502,1111122 
COMPS,ioos:station:USF.COMPS:ANC:1,2008-09-01T08:42:00Z,28.1930,-82.7890,0.494,1111122 
COMPS,ioos:station:USF.COMPS:ANC:1,2008-09-01T08:48:00Z,28.1930,-82.7890,0.474,1111122 
COMPS,ioos:station:USF.COMPS:ANC:1,2008-09-01T08:54:00Z,28.1930,-82.7890,0.451,1111122 
COMPS,ioos:station:USF.COMPS:ANC:1,2008-09-01T09:00:00Z,28.1930,-82.7890,0.436,1111122 
COMPS,ioos:station:USF.COMPS:ANC:1,2008-09-01T09:06:00Z,28.1930,-82.7890,0.418,1111122 
COMPS,ioos:station:USF.COMPS:ANC:1,2008-09-01T09:12:00Z,28.1930,-82.7890,0.397,1111122 
COMPS,ioos:station:USF.COMPS:ANC:1,2008-09-01T09:18:00Z,28.1930,-82.7890,0.388,1111122 
COMPS,ioos:station:USF.COMPS:ANC:1,2008-09-01T09:24:00Z,28.1930,-82.7890,0.369,1111122 
COMPS,ioos:station:USF.COMPS:ANC:1,2008-09-01T09:30:00Z,28.1930,-82.7890,0.342,1111122 
COMPS,ioos:station:USF.COMPS:ANC:1,2008-09-01T09:36:00Z,28.1930,-82.7890,0.315,1111122 
COMPS,ioos:station:USF.COMPS:ANC:1,2008-09-01T09:42:00Z,28.1930,-82.7890,0.299,1111122 
COMPS,ioos:station:USF.COMPS:ANC:1,2008-09-01T09:48:00Z,28.1930,-82.7890,0.28,1111122 
COMPS,ioos:station:USF.COMPS:ANC:1,2008-09-01T09:54:00Z,28.1930,-82.7890,0.252,1111122 
COMPS,ioos:station:USF.COMPS:ANC:1,2008-09-01T10:00:00Z,28.1930,-82.7890,0.222,1111122 
COMPS,ioos:station:USF.COMPS:ANC:1,2008-09-01T10:06:00Z,28.1930,-82.7890,0.202,1111122 
COMPS,ioos:station:USF.COMPS:ANC:1,2008-09-01T10:12:00Z,28.1930,-82.7890,0.187,1111122 
COMPS,ioos:station:USF.COMPS:ANC:1,2008-09-01T10:18:00Z,28.1930,-82.7890,0.161,1111122 
COMPS,ioos:station:USF.COMPS:ANC:1,2008-09-01T10:24:00Z,28.1930,-82.7890,0.143,1111122 
COMPS,ioos:station:USF.COMPS:ANC:1,2008-09-01T10:30:00Z,28.1930,-82.7890,0.124,1111122 
COMPS,ioos:station:USF.COMPS:ANC:1,2008-09-01T10:36:00Z,28.1930,-82.7890,0.097,1111122 
COMPS,ioos:station:USF.COMPS:ANC:1,2008-09-01T10:42:00Z,28.1930,-82.7890,0.086,1111122 
COMPS,ioos:station:USF.COMPS:ANC:1,2008-09-01T10:48:00Z,28.1930,-82.7890,0.074,1111122 
COMPS,ioos:station:USF.COMPS:ANC:1,2008-09-01T10:54:00Z,28.1930,-82.7890,0.058,1111122 
COMPS,ioos:station:USF.COMPS:ANC:1,2008-09-01T11:00:00Z,28.1930,-82.7890,0.046,1111122 
COMPS,ioos:station:USF.COMPS:ANC:1,2008-09-01T11:06:00Z,28.1930,-82.7890,0.033,1111122 
COMPS,ioos:station:USF.COMPS:ANC:1,2008-09-01T11:12:00Z,28.1930,-82.7890,0.021,1111122 
COMPS,ioos:station:USF.COMPS:ANC:1,2008-09-01T11:18:00Z,28.1930,-82.7890,0.01,1111122 
COMPS,ioos:station:USF.COMPS:ANC:1,2008-09-01T11:24:00Z,28.1930,-82.7890,0.0,1114422 
COMPS,ioos:station:USF.COMPS:ANC:1,2008-09-01T11:30:00Z,28.1930,-82.7890,-0.013,1111122 
COMPS,ioos:station:USF.COMPS:ANC:1,2008-09-01T11:36:00Z,28.1930,-82.7890,-0.016,1111122 
COMPS,ioos:station:USF.COMPS:ANC:1,2008-09-01T11:42:00Z,28.1930,-82.7890,-0.022,1111122 
COMPS,ioos:station:USF.COMPS:ANC:1,2008-09-01T11:48:00Z,28.1930,-82.7890,-0.033,1111122 
COMPS,ioos:station:USF.COMPS:ANC:1,2008-09-01T11:54:00Z,28.1930,-82.7890,-0.039,1111122 
COMPS,ioos:station:USF.COMPS:ANC:1,2008-09-01T12:00:00Z,28.1930,-82.7890,-0.048,1111122 
COMPS,ioos:station:USF.COMPS:ANC:1,2008-09-01T12:06:00Z,28.1930,-82.7890,-0.063,1111122 
COMPS,ioos:station:USF.COMPS:ANC:1,2008-09-01T12:12:00Z,28.1930,-82.7890,-0.08,1111122 
COMPS,ioos:station:USF.COMPS:ANC:1,2008-09-01T12:18:00Z,28.1930,-82.7890,-0.09,1111122 
COMPS,ioos:station:USF.COMPS:ANC:1,2008-09-01T12:24:00Z,28.1930,-82.7890,-0.089,1111122 
COMPS,ioos:station:USF.COMPS:ANC:1,2008-09-01T12:30:00Z,28.1930,-82.7890,-0.09,1111122 
COMPS,ioos:station:USF.COMPS:ANC:1,2008-09-01T12:36:00Z,28.1930,-82.7890,-0.099,1111122 
COMPS,ioos:station:USF.COMPS:ANC:1,2008-09-01T12:42:00Z,28.1930,-82.7890,-0.105,1111122 
COMPS,ioos:station:USF.COMPS:ANC:1,2008-09-01T12:48:00Z,28.1930,-82.7890,-0.106,1111122 
COMPS,ioos:station:USF.COMPS:ANC:1,2008-09-01T12:54:00Z,28.1930,-82.7890,-0.11,1111122 
COMPS,ioos:station:USF.COMPS:ANC:1,2008-09-01T14:00:00Z,28.1930,-82.7890,-0.016,1111122 
COMPS,ioos:station:USF.COMPS:ANC:1,2008-09-01T14:06:00Z,28.1930,-82.7890,0.008,1111122 
COMPS,ioos:station:USF.COMPS:ANC:1,2008-09-01T14:12:00Z,28.1930,-82.7890,0.005,1111122 
COMPS,ioos:station:USF.COMPS:ANC:1,2008-09-01T14:18:00Z,28.1930,-82.7890,0.016,1111122 
COMPS,ioos:station:USF.COMPS:ANC:1,2008-09-01T14:24:00Z,28.1930,-82.7890,0.036,1111122 
COMPS,ioos:station:USF.COMPS:ANC:1,2008-09-01T14:30:00Z,28.1930,-82.7890,0.054,1111122 
COMPS,ioos:station:USF.COMPS:ANC:1,2008-09-01T14:36:00Z,28.1930,-82.7890,0.072,1111122 
COMPS,ioos:station:USF.COMPS:ANC:1,2008-09-01T14:42:00Z,28.1930,-82.7890,0.093,1111122 
COMPS,ioos:station:USF.COMPS:ANC:1,2008-09-01T14:48:00Z,28.1930,-82.7890,0.101,1111122 
COMPS,ioos:station:USF.COMPS:ANC:1,2008-09-01T14:54:00Z,28.1930,-82.7890,0.119,1111122 
COMPS,ioos:station:USF.COMPS:ANC:1,2008-09-01T15:00:00Z,28.1930,-82.7890,0.14,1111122 
COMPS,ioos:station:USF.COMPS:ANC:1,2008-09-01T15:06:00Z,28.1930,-82.7890,0.156,1111122 
COMPS,ioos:station:USF.COMPS:ANC:1,2008-09-01T15:12:00Z,28.1930,-82.7890,0.166,1111122 
COMPS,ioos:station:USF.COMPS:ANC:1,2008-09-01T15:18:00Z,28.1930,-82.7890,0.185,1111122 
COMPS,ioos:station:USF.COMPS:ANC:1,2008-09-01T15:24:00Z,28.1930,-82.7890,0.201,1111122 
COMPS,ioos:station:USF.COMPS:ANC:1,2008-09-01T15:30:00Z,28.1930,-82.7890,0.214,1111122 
COMPS,ioos:station:USF.COMPS:ANC:1,2008-09-01T15:36:00Z,28.1930,-82.7890,0.228,1111122 
COMPS,ioos:station:USF.COMPS:ANC:1,2008-09-01T15:42:00Z,28.1930,-82.7890,0.244,1111122 
COMPS,ioos:station:USF.COMPS:ANC:1,2008-09-01T15:48:00Z,28.1930,-82.7890,0.266,1111122 
COMPS,ioos:station:USF.COMPS:ANC:1,2008-09-01T15:54:00Z,28.1930,-82.7890,0.287,1111122 
COMPS,ioos:station:USF.COMPS:ANC:1,2008-09-01T16:00:00Z,28.1930,-82.7890,0.304,1111122 
COMPS,ioos:station:USF.COMPS:ANC:1,2008-09-01T16:06:00Z,28.1930,-82.7890,0.318,1111122 
COMPS,ioos:station:USF.COMPS:ANC:1,2008-09-01T16:12:00Z,28.1930,-82.7890,0.333,1111122 
COMPS,ioos:station:USF.COMPS:ANC:1,2008-09-01T16:18:00Z,28.1930,-82.7890,0.344,1111122 
COMPS,ioos:station:USF.COMPS:ANC:1,2008-09-01T16:24:00Z,28.1930,-82.7890,0.353,1111122 
COMPS,ioos:station:USF.COMPS:ANC:1,2008-09-01T16:30:00Z,28.1930,-82.7890,0.358,1111122 
COMPS,ioos:station:USF.COMPS:ANC:1,2008-09-01T16:36:00Z,28.1930,-82.7890,0.373,1111122 
COMPS,ioos:station:USF.COMPS:ANC:1,2008-09-01T16:42:00Z,28.1930,-82.7890,0.374,1111122 
COMPS,ioos:station:USF.COMPS:ANC:1,2008-09-01T16:48:00Z,28.1930,-82.7890,0.387,1111122 
COMPS,ioos:station:USF.COMPS:ANC:1,2008-09-01T16:54:00Z,28.1930,-82.7890,0.394,1111122 
COMPS,ioos:station:USF.COMPS:ANC:1,2008-09-01T17:00:00Z,28.1930,-82.7890,0.392,1111122 
COMPS,ioos:station:USF.COMPS:ANC:1,2008-09-01T17:06:00Z,28.1930,-82.7890,0.393,1111122 
COMPS,ioos:station:USF.COMPS:ANC:1,2008-09-01T17:12:00Z,28.1930,-82.7890,0.406,1111122 
COMPS,ioos:station:USF.COMPS:ANC:1,2008-09-01T17:18:00Z,28.1930,-82.7890,0.409,1111122 
COMPS,ioos:station:USF.COMPS:ANC:1,2008-09-01T17:24:00Z,28.1930,-82.7890,0.408,1111122 
COMPS,ioos:station:USF.COMPS:ANC:1,2008-09-01T17:30:00Z,28.1930,-82.7890,0.413,1111122 
COMPS,ioos:station:USF.COMPS:ANC:1,2008-09-01T17:36:00Z,28.1930,-82.7890,0.411,1111122 
COMPS,ioos:station:USF.COMPS:ANC:1,2008-09-01T17:42:00Z,28.1930,-82.7890,0.418,1111122 
COMPS,ioos:station:USF.COMPS:ANC:1,2008-09-01T17:48:00Z,28.1930,-82.7890,0.427,1111122 
COMPS,ioos:station:USF.COMPS:ANC:1,2008-09-01T17:54:00Z,28.1930,-82.7890,0.426,1111122 
COMPS,ioos:station:USF.COMPS:ANC:1,2008-09-01T18:00:00Z,28.1930,-82.7890,0.423,1111122 
COMPS,ioos:station:USF.COMPS:ANC:1,2008-09-01T18:06:00Z,28.1930,-82.7890,0.426,1111122 
COMPS,ioos:station:USF.COMPS:ANC:1,2008-09-01T18:12:00Z,28.1930,-82.7890,0.429,1111122 
COMPS,ioos:station:USF.COMPS:ANC:1,2008-09-01T18:18:00Z,28.1930,-82.7890,0.429,1111122 
COMPS,ioos:station:USF.COMPS:ANC:1,2008-09-01T18:24:00Z,28.1930,-82.7890,0.415,1111122 
COMPS,ioos:station:USF.COMPS:ANC:1,2008-09-01T18:30:00Z,28.1930,-82.7890,0.411,1111122 
COMPS,ioos:station:USF.COMPS:ANC:1,2008-09-01T18:36:00Z,28.1930,-82.7890,0.412,1111122 
COMPS,ioos:station:USF.COMPS:ANC:1,2008-09-01T18:42:00Z,28.1930,-82.7890,0.401,1111122 
COMPS,ioos:station:USF.COMPS:ANC:1,2008-09-01T18:48:00Z,28.1930,-82.7890,0.397,1111122 
COMPS,ioos:station:USF.COMPS:ANC:1,2008-09-01T18:54:00Z,28.1930,-82.7890,0.394,1111122 
COMPS,ioos:station:USF.COMPS:ANC:1,2008-09-01T19:00:00Z,28.1930,-82.7890,0.39,1111122 
COMPS,ioos:station:USF.COMPS:ANC:1,2008-09-01T19:06:00Z,28.1930,-82.7890,0.383,1111122 
COMPS,ioos:station:USF.COMPS:ANC:1,2008-09-01T19:12:00Z,28.1930,-82.7890,0.363,1111122 
COMPS,ioos:station:USF.COMPS:ANC:1,2008-09-01T19:18:00Z,28.1930,-82.7890,0.353,1111122 
COMPS,ioos:station:USF.COMPS:ANC:1,2008-09-01T19:24:00Z,28.1930,-82.7890,0.341,1111122 
COMPS,ioos:station:USF.COMPS:ANC:1,2008-09-01T19:30:00Z,28.1930,-82.7890,0.329,1111122 
COMPS,ioos:station:USF.COMPS:ANC:1,2008-09-01T19:36:00Z,28.1930,-82.7890,0.314,1111122 
COMPS,ioos:station:USF.COMPS:ANC:1,2008-09-01T19:42:00Z,28.1930,-82.7890,0.299,1111122 
COMPS,ioos:station:USF.COMPS:ANC:1,2008-09-01T19:48:00Z,28.1930,-82.7890,0.293,1111122 
COMPS,ioos:station:USF.COMPS:ANC:1,2008-09-01T19:54:00Z,28.1930,-82.7890,0.281,1111122 
COMPS,ioos:station:USF.COMPS:ANC:1,2008-09-01T20:00:00Z,28.1930,-82.7890,0.267,1111122 
COMPS,ioos:station:USF.COMPS:ANC:1,2008-09-01T20:06:00Z,28.1930,-82.7890,0.25,1111122 
COMPS,ioos:station:USF.COMPS:ANC:1,2008-09-01T20:12:00Z,28.1930,-82.7890,0.231,1111122 
COMPS,ioos:station:USF.COMPS:ANC:1,2008-09-01T20:18:00Z,28.1930,-82.7890,0.217,1111122 
COMPS,ioos:station:USF.COMPS:ANC:1,2008-09-01T20:24:00Z,28.1930,-82.7890,0.2,1111122 
COMPS,ioos:station:USF.COMPS:ANC:1,2008-09-01T20:30:00Z,28.1930,-82.7890,0.181,1111122 
COMPS,ioos:station:USF.COMPS:ANC:1,2008-09-01T20:36:00Z,28.1930,-82.7890,0.159,1111122 
COMPS,ioos:station:USF.COMPS:ANC:1,2008-09-01T20:42:00Z,28.1930,-82.7890,0.14,1111122 
COMPS,ioos:station:USF.COMPS:ANC:1,2008-09-01T20:48:00Z,28.1930,-82.7890,0.117,1111122 
COMPS,ioos:station:USF.COMPS:ANC:1,2008-09-01T20:54:00Z,28.1930,-82.7890,0.101,1111122 
COMPS,ioos:station:USF.COMPS:ANC:1,2008-09-01T21:00:00Z,28.1930,-82.7890,0.087,1111122 
COMPS,ioos:station:USF.COMPS:ANC:1,2008-09-01T21:06:00Z,28.1930,-82.7890,0.069,1111122 
COMPS,ioos:station:USF.COMPS:ANC:1,2008-09-01T21:12:00Z,28.1930,-82.7890,0.052,1111122 
COMPS,ioos:station:USF.COMPS:ANC:1,2008-09-01T21:18:00Z,28.1930,-82.7890,0.04,1111122 
COMPS,ioos:station:USF.COMPS:ANC:1,2008-09-01T21:24:00Z,28.1930,-82.7890,0.028,1111122 
COMPS,ioos:station:USF.COMPS:ANC:1,2008-09-01T21:30:00Z,28.1930,-82.7890,0.014,1111122 
COMPS,ioos:station:USF.COMPS:ANC:1,2008-09-01T21:36:00Z,28.1930,-82.7890,0.003,1111122 
COMPS,ioos:station:USF.COMPS:ANC:1,2008-09-01T21:42:00Z,28.1930,-82.7890,-0.008,1111122 
COMPS,ioos:station:USF.COMPS:ANC:1,2008-09-01T21:48:00Z,28.1930,-82.7890,-0.029,1111122 
COMPS,ioos:station:USF.COMPS:ANC:1,2008-09-01T21:54:00Z,28.1930,-82.7890,-0.057,1111122 
COMPS,ioos:station:USF.COMPS:ANC:1,2008-09-01T22:00:00Z,28.1930,-82.7890,-0.083,1111122 
COMPS,ioos:station:USF.COMPS:ANC:1,2008-09-01T22:06:00Z,28.1930,-82.7890,-0.098,1111122 
COMPS,ioos:station:USF.COMPS:ANC:1,2008-09-01T22:12:00Z,28.1930,-82.7890,-0.108,1111122 
COMPS,ioos:station:USF.COMPS:ANC:1,2008-09-01T22:18:00Z,28.1930,-82.7890,-0.128,1111122 
COMPS,ioos:station:USF.COMPS:ANC:1,2008-09-01T22:24:00Z,28.1930,-82.7890,-0.148,1111122 
COMPS,ioos:station:USF.COMPS:ANC:1,2008-09-01T22:30:00Z,28.1930,-82.7890,-0.164,1111122 
COMPS,ioos:station:USF.COMPS:ANC:1,2008-09-01T22:36:00Z,28.1930,-82.7890,-0.182,1111122 
COMPS,ioos:station:USF.COMPS:ANC:1,2008-09-01T22:42:00Z,28.1930,-82.7890,-0.198,1111122 
COMPS,ioos:station:USF.COMPS:ANC:1,2008-09-01T22:48:00Z,28.1930,-82.7890,-0.211,1111122 
COMPS,ioos:station:USF.COMPS:ANC:1,2008-09-01T22:54:00Z,28.1930,-82.7890,-0.225,1111122 
COMPS,ioos:station:USF.COMPS:ANC:1,2008-09-01T23:00:00Z,28.1930,-82.7890,-0.239,1111122 
COMPS,ioos:station:USF.COMPS:ANC:1,2008-09-01T23:06:00Z,28.1930,-82.7890,-0.255,1111122 
COMPS,ioos:station:USF.COMPS:ANC:1,2008-09-01T23:12:00Z,28.1930,-82.7890,-0.269,1111122 
COMPS,ioos:station:USF.COMPS:ANC:1,2008-09-01T23:18:00Z,28.1930,-82.7890,-0.276,1111122 
COMPS,ioos:station:USF.COMPS:ANC:1,2008-09-01T23:24:00Z,28.1930,-82.7890,-0.28,1111122 
COMPS,ioos:station:USF.COMPS:ANC:1,2008-09-01T23:30:00Z,28.1930,-82.7890,-0.284,1111122 
COMPS,ioos:station:USF.COMPS:ANC:1,2008-09-01T23:36:00Z,28.1930,-82.7890,-0.297,1111122 
COMPS,ioos:station:USF.COMPS:ANC:1,2008-09-01T23:42:00Z,28.1930,-82.7890,-0.298,1111122 
COMPS,ioos:station:USF.COMPS:ANC:1,2008-09-01T23:48:00Z,28.1930,-82.7890,-0.296,1111122 
COMPS,ioos:station:USF.COMPS:ANC:1,2008-09-01T23:54:00Z,28.1930,-82.7890,-0.292,1111122 
COMPS,ioos:station:USF.COMPS:ANC:1,2008-09-02T00:00:00Z,28.1930,-82.7890,-0.293,1111122 
COMPS,ioos:station:USF.COMPS:ANC:1,2008-09-02T00:06:00Z,28.1930,-82.7890,-0.302,1111122 
COMPS,ioos:station:USF.COMPS:ANC:1,2008-09-02T00:12:00Z,28.1930,-82.7890,-0.309,1111122 
COMPS,ioos:station:USF.COMPS:ANC:1,2008-09-02T00:18:00Z,28.1930,-82.7890,-0.311,1111122 
COMPS,ioos:station:USF.COMPS:ANC:1,2008-09-02T00:24:00Z,28.1930,-82.7890,-0.307,1111122 
COMPS,ioos:station:USF.COMPS:ANC:1,2008-09-02T00:30:00Z,28.1930,-82.7890,-0.294,1111122 
COMPS,ioos:station:USF.COMPS:ANC:1,2008-09-02T00:36:00Z,28.1930,-82.7890,-0.276,1111122 
COMPS,ioos:station:USF.COMPS:ANC:1,2008-09-02T00:42:00Z,28.1930,-82.7890,-0.262,1111122 
COMPS,ioos:station:USF.COMPS:ANC:1,2008-09-02T00:48:00Z,28.1930,-82.7890,-0.251,1111122 
COMPS,ioos:station:USF.COMPS:ANC:1,2008-09-02T00:54:00Z,28.1930,-82.7890,-0.24,1111122 
COMPS,ioos:station:USF.COMPS:ANC:1,2008-09-02T01:00:00Z,28.1930,-82.7890,-0.232,1111122 
COMPS,ioos:station:USF.COMPS:ANC:1,2008-09-02T01:06:00Z,28.1930,-82.7890,-0.228,1111122 
COMPS,ioos:station:USF.COMPS:ANC:1,2008-09-02T01:12:00Z,28.1930,-82.7890,-0.226,1111122 
COMPS,ioos:station:USF.COMPS:ANC:1,2008-09-02T01:18:00Z,28.1930,-82.7890,-0.222,1111122 
COMPS,ioos:station:USF.COMPS:ANC:1,2008-09-02T01:24:00Z,28.1930,-82.7890,-0.209,1111122 
COMPS,ioos:station:USF.COMPS:ANC:1,2008-09-02T01:30:00Z,28.1930,-82.7890,-0.191,1111122 
COMPS,ioos:station:USF.COMPS:ANC:1,2008-09-02T01:36:00Z,28.1930,-82.7890,-0.179,1111122 
COMPS,ioos:station:USF.COMPS:ANC:1,2008-09-02T01:42:00Z,28.1930,-82.7890,-0.171,1111122 
COMPS,ioos:station:USF.COMPS:ANC:1,2008-09-02T01:48:00Z,28.1930,-82.7890,-0.155,1111122 
COMPS,ioos:station:USF.COMPS:ANC:1,2008-09-02T01:54:00Z,28.1930,-82.7890,-0.141,1111122 
COMPS,ioos:station:USF.COMPS:ANC:1,2008-09-02T02:00:00Z,28.1930,-82.7890,-0.13,1111122 
COMPS,ioos:station:USF.COMPS:ANC:1,2008-09-02T02:06:00Z,28.1930,-82.7890,-0.11,1111122 
COMPS,ioos:station:USF.COMPS:ANC:1,2008-09-02T02:12:00Z,28.1930,-82.7890,-0.091,1111122 
COMPS,ioos:station:USF.COMPS:ANC:1,2008-09-02T02:18:00Z,28.1930,-82.7890,-0.071,1111122 
COMPS,ioos:station:USF.COMPS:ANC:1,2008-09-02T02:24:00Z,28.1930,-82.7890,-0.057,1111122 
COMPS,ioos:station:USF.COMPS:ANC:1,2008-09-02T02:30:00Z,28.1930,-82.7890,-0.043,1111122 
COMPS,ioos:station:USF.COMPS:ANC:1,2008-09-02T02:36:00Z,28.1930,-82.7890,-0.022,1111122 
COMPS,ioos:station:USF.COMPS:ANC:1,2008-09-02T02:42:00Z,28.1930,-82.7890,0.001,1111122 
COMPS,ioos:station:USF.COMPS:ANC:1,2008-09-02T02:48:00Z,28.1930,-82.7890,0.024,1111122 
COMPS,ioos:station:USF.COMPS:ANC:1,2008-09-02T02:54:00Z,28.1930,-82.7890,0.033,1111122 
COMPS,ioos:station:USF.COMPS:ANC:1,2008-09-02T03:00:00Z,28.1930,-82.7890,0.052,1111122 
COMPS,ioos:station:USF.COMPS:ANC:1,2008-09-02T03:06:00Z,28.1930,-82.7890,0.076,1111122 
COMPS,ioos:station:USF.COMPS:ANC:1,2008-09-02T03:12:00Z,28.1930,-82.7890,0.091,1111122 
COMPS,ioos:station:USF.COMPS:ANC:1,2008-09-02T03:18:00Z,28.1930,-82.7890,0.109,1111122 
COMPS,ioos:station:USF.COMPS:ANC:1,2008-09-02T03:24:00Z,28.1930,-82.7890,0.134,1111122 
COMPS,ioos:station:USF.COMPS:ANC:1,2008-09-02T03:30:00Z,28.1930,-82.7890,0.153,1111122 
COMPS,ioos:station:USF.COMPS:ANC:1,2008-09-02T03:36:00Z,28.1930,-82.7890,0.173,1111122 
COMPS,ioos:station:USF.COMPS:ANC:1,2008-09-02T03:42:00Z,28.1930,-82.7890,0.197,1111122 
COMPS,ioos:station:USF.COMPS:ANC:1,2008-09-02T03:48:00Z,28.1930,-82.7890,0.217,1111122 
COMPS,ioos:station:USF.COMPS:ANC:1,2008-09-02T03:54:00Z,28.1930,-82.7890,0.231,1111122 
COMPS,ioos:station:USF.COMPS:ANC:1,2008-09-02T04:00:00Z,28.1930,-82.7890,0.256,1111122 